Theta_e
319 314 308 308 314 314 318 309 299 297 299 293 291 294 297 300 303 298 297 299 298 302 302 301 300 302 303 300 304 307 306 300 299 292 294 302 318 326 335 335 337 338 338 339 340 344 346 350 351 351 350 349 348 347 347 345 344 344 343 348 348 346 343 342 341 340 341 340 337 340 340 341 343 343 344 345 342 341 339 338 339 343 345 345 344 343 338 331 336 340 346 344 344 344 343 343 342
314 307 306 309 311 315 310 302 294 292 291 288 292 294 297 298 297 295 297 298 300 302 302 301 301 302 302 302 304 303 305 310 304 312 309 320 324 329 335 335 337 337 338 338 341 341 342 346 351 351 351 347 347 346 345 345 344 344 343 343 344 343 342 341 341 340 341 340 337 340 340 342 343 344 343 345 344 343 341 339 339 338 345 344 344 340 335 332 343 344 344 343 343 343 342 341 340
309 303 307 311 310 311 306 303 298 288 291 289 289 295 297 295 295 298 298 300 302 303 300 302 302 304 302 311 309 303 304 310 315 316 315 320 322 325 335 337 339 338 339 339 341 340 341 345 349 350 351 347 346 345 345 344 343 343 343 343 343 343 342 342 341 340 341 341 338 340 341 342 344 344 344 344 344 343 340 340 338 337 343 344 343 338 336 332 343 344 344 343 342 342 341 341 340
303 304 306 307 307 304 300 295 291 291 289 287 290 296 296 296 296 297 298 300 301 301 302 302 305 307 311 311 312 308 310 316 314 316 314 318 320 325 337 340 340 340 341 341 340 340 340 345 347 348 350 350 346 345 345 343 343 343 343 343 343 343 343 342 342 341 340 341 339 340 341 341 344 345 344 343 343 343 341 341 340 338 338 344 342 341 339 338 343 344 344 342 340 340 341 340 340
301 307 307 304 304 302 299 294 291 291 291 290 291 295 295 296 295 296 297 299 301 300 301 302 308 311 316 316 313 311 314 320 316 321 319 320 330 335 337 339 342 342 341 341 341 340 340 345 345 346 349 350 345 345 344 343 343 343 343 343 344 343 343 342 342 342 341 341 340 340 341 341 344 344 344 344 343 343 343 343 342 341 341 343 343 345 343 342 343 341 342 342 341 340 340 340 340
304 305 308 307 303 305 299 294 292 291 295 296 294 295 294 295 295 296 297 299 302 307 302 308 302 304 315 317 320 316 322 315 323 322 323 327 337 337 338 339 342 343 344 343 342 340 339 344 344 346 348 349 344 344 344 344 344 343 342 343 343 344 343 343 343 343 342 341 341 341 341 341 343 344 344 344 343 343 343 343 343 342 343 342 344 344 344 343 342 342 341 340 340 339 339 340 339
302 301 298 302 299 300 295 288 290 291 294 297 295 293 294 295 296 296 301 300 307 306 312 306 312 313 311 312 319 321 324 326 322 326 329 335 339 338 339 341 343 343 345 344 344 341 338 342 344 345 347 348 343 344 344 344 344 344 343 342 342 343 343 343 343 343 342 342 342 342 343 343 344 344 344 343 344 344 342 342 343 342 343 343 343 343 344 343 342 341 341 340 339 339 339 338 338
311 300 296 292 291 295 288 288 292 291 292 294 295 293 295 295 296 298 302 301 300 308 312 311 315 316 313 319 314 324 327 327 327 328 333 339 339 338 338 342 342 343 344 344 344 343 343 341 342 344 346 347 348 345 344 344 344 344 345 344 343 343 343 343 343 342 342 342 342 342 343 343 344 344 343 343 342 342 343 343 341 342 342 343 343 343 342 343 343 342 341 340 340 339 339 338 337
299 297 297 295 292 288 286 290 292 293 294 292 293 295 299 295 296 299 303 304 303 305 308 312 308 311 311 313 316 315 315 319 330 332 332 333 336 336 340 341 341 342 343 343 343 341 338 341 341 342 343 345 346 348 347 348 348 346 345 344 345 344 344 344 344 344 344 343 342 342 342 343 343 344 344 342 342 342 342 343 342 341 342 342 343 342 342 343 343 342 341 341 339 339 338 338 337
296 296 291 290 289 289 285 286 287 290 290 291 292 293 294 295 296 299 301 304 304 305 305 308 317 313 315 309 310 309 308 311 324 331 334 331 336 337 339 341 342 342 342 342 342 340 338 343 340 341 341 342 344 346 346 347 347 345 344 344 345 345 345 344 344 344 344 344 344 344 344 344 344 343 343 343 342 342 340 342 343 341 341 341 342 342 342 341 341 341 342 340 340 339 339 338 337
291 290 293 290 284 284 286 286 288 290 290 292 291 294 294 295 296 297 299 302 306 302 302 301 310 311 311 305 305 309 306 307 312 319 326 329 330 335 338 339 340 341 340 340 340 339 337 337 342 339 340 340 343 344 344 345 346 345 345 344 345 344 344 344 344 343 342 343 342 343 343 343 343 343 341 342 343 340 341 339 341 341 340 341 341 342 342 342 342 341 341 340 339 339 338 338 337
289 287 289 282 282 285 285 288 287 289 291 291 291 293 294 293 297 296 296 296 299 297 296 298 308 313 307 302 297 302 302 303 307 311 313 318 319 323 325 327 325 325 328 332 335 335 335 336 337 342 338 338 340 340 341 343 346 346 345 345 345 345 344 344 344 343 342 341 341 342 342 342 343 343 341 340 340 338 339 339 339 339 340 340 341 341 341 341 342 341 341 340 339 339 338 338 337
286 286 286 284 285 283 286 287 288 289 286 289 290 293 294 293 294 297 296 295 296 294 293 297 309 302 295 300 299 300 299 301 306 308 309 310 311 314 317 317 318 317 317 319 320 323 328 333 335 336 336 337 337 338 339 340 342 344 344 344 344 345 345 345 342 339 338 340 342 341 343 344 343 342 341 341 339 338 335 337 340 341 340 340 339 340 341 342 342 342 341 340 339 339 338 338 337
287 285 286 283 281 282 282 284 284 285 285 289 291 293 292 292 291 296 296 292 292 294 296 299 303 302 294 298 295 295 297 301 306 306 306 307 307 307 309 311 312 312 312 312 313 316 320 326 332 334 333 334 332 335 337 337 338 341 341 341 342 343 343 343 341 340 341 340 341 342 342 343 343 342 341 340 338 337 335 336 337 339 340 340 339 340 339 340 341 341 340 340 339 339 338 338 337
290 287 284 281 279 280 284 283 285 284 284 289 292 291 291 295 295 296 294 291 291 296 302 300 300 296 289 291 290 294 297 300 302 305 305 305 305 306 306 306 307 309 308 308 308 310 313 317 323 331 333 333 333 332 332 333 335 336 339 339 339 340 340 340 339 338 338 337 339 339 340 341 340 340 339 338 336 336 337 335 334 336 340 340 339 339 338 340 340 340 340 340 340 339 338 338 339
288 287 283 281 280 282 284 284 283 284 285 289 292 290 291 293 295 293 294 295 293 296 297 292 298 294 294 292 293 296 298 300 302 303 305 304 304 305 304 304 305 306 306 306 306 307 308 311 315 320 323 327 332 334 333 331 333 334 334 336 336 336 337 337 336 335 333 335 335 335 337 335 336 334 338 335 335 334 336 333 332 333 337 340 339 338 337 337 340 340 340 339 338 338 338 339 339
288 290 284 281 281 282 285 283 284 282 288 288 290 289 289 290 294 294 296 296 292 294 294 296 293 297 294 294 297 298 299 301 302 300 301 301 302 300 301 303 304 304 305 304 304 305 306 307 309 313 317 319 325 331 333 333 332 331 333 333 333 333 331 332 333 332 331 331 331 331 332 330 329 328 329 328 333 331 330 328 330 331 333 335 338 338 337 337 339 340 340 340 338 339 338 339 337
289 283 281 282 280 283 286 285 287 289 286 287 288 288 289 288 290 293 294 292 292 292 292 294 296 296 297 298 298 298 299 298 298 297 297 297 298 297 298 299 300 301 302 303 302 303 305 306 306 307 310 314 319 323 328 330 333 334 334 333 332 331 331 331 331 333 337 334 329 331 331 330 330 328 328 332 327 328 329 327 328 330 332 333 335 336 336 339 339 337 337 338 338 339 336 332 329
286 281 284 282 280 286 288 288 287 287 287 286 287 288 288 287 288 291 288 288 289 288 290 292 291 293 295 296 296 297 297 296 296 296 295 295 296 295 295 297 297 298 300 301 300 301 301 303 303 307 307 309 313 317 320 322 327 330 332 332 331 330 332 332 332 333 331 331 331 332 330 329 329 328 328 329 329 326 328 327 328 329 330 332 333 334 333 333 335 336 334 336 338 336 333 327 326
287 286 283 284 288 288 286 286 286 287 288 286 287 287 287 287 288 291 288 287 288 286 287 289 289 290 292 293 295 295 295 294 295 294 294 294 294 294 294 294 295 296 297 298 299 299 299 299 300 303 307 308 310 313 315 317 319 323 325 327 330 332 332 331 331 331 331 330 329 327 329 330 329 328 331 334 335 330 327 325 325 326 327 328 329 331 332 332 334 333 334 333 332 332 330 328 325
287 285 281 285 287 283 286 286 285 287 288 287 286 287 286 287 288 288 288 286 286 287 290 289 288 290 291 292 293 293 293 292 293 293 292 293 293 294 294 294 294 295 297 297 298 297 297 297 298 300 302 304 306 308 311 313 314 317 319 321 322 324 328 331 331 331 330 329 328 327 328 328 329 329 327 326 327 327 325 325 326 326 327 326 327 326 328 329 331 328 328 329 330 329 327 326 324
286 283 284 285 285 283 285 285 287 288 286 287 286 286 285 288 288 287 287 284 283 287 290 291 291 291 291 291 292 292 291 291 291 291 292 291 292 292 293 293 295 295 296 294 295 296 296 296 297 298 300 301 303 305 307 310 311 312 313 315 318 320 321 324 328 330 331 331 330 329 328 328 328 329 328 326 325 325 326 325 325 325 323 326 325 326 325 324 325 325 327 328 328 326 326 326 323
284 284 285 285 285 284 284 287 286 287 286 286 285 286 287 286 285 287 287 286 288 292 292 292 292 292 292 292 291 290 290 290 290 290 290 291 291 291 292 292 292 292 294 294 294 295 295 295 296 297 298 299 300 302 304 306 308 311 312 313 314 316 317 317 320 321 319 319 318 320 326 327 326 326 326 326 324 323 324 324 324 323 323 324 324 324 325 325 326 326 326 326 326 325 325 323 321
287 283 284 285 286 284 284 286 286 287 287 285 287 288 285 286 283 286 286 288 290 292 292 292 292 292 292 290 290 290 290 290 290 290 291 290 291 291 291 291 292 293 293 293 294 294 294 294 295 295 297 297 298 300 301 302 304 307 309 310 310 311 312 312 315 316 315 315 316 315 314 317 323 325 324 323 323 322 323 323 322 321 321 322 322 321 321 321 322 323 323 324 324 323 323 322 321
285 284 285 285 286 285 284 284 285 286 285 286 286 285 284 286 284 286 285 288 290 291 292 292 291 291 290 290 289 289 289 290 289 290 291 291 291 292 292 291 291 291 290 292 293 293 293 294 294 294 295 296 296 298 298 299 301 302 303 305 307 310 307 307 309 311 312 312 312 310 311 311 311 313 316 322 323 322 322 322 322 322 320 321 320 320 320 320 320 321 322 324 324 323 322 322 322
284 284 284 285 285 286 285 285 283 284 286 287 285 283 284 284 286 284 286 288 290 291 291 290 290 289 289 289 289 289 289 289 289 289 289 290 290 290 290 290 290 289 290 291 292 292 293 293 292 293 294 295 296 297 297 297 298 298 299 299 302 306 306 305 305 305 307 308 308 308 309 309 309 310 311 312 313 319 322 322 322 322 322 321 319 319 320 319 320 320 320 322 322 323 324 324 322
284 284 284 284 284 285 285 283 284 285 285 286 283 282 282 286 284 280 286 288 290 290 289 289 289 288 288 289 289 289 288 288 289 289 289 289 289 289 289 290 290 289 290 290 291 292 293 292 292 292 293 296 295 295 296 296 296 297 298 296 297 299 301 302 303 303 303 304 304 305 306 306 307 308 308 308 311 313 316 321 322 322 321 321 321 321 321 319 319 319 320 320 321 322 323 324 323
284 283 285 284 286 286 285 284 284 283 283 284 285 282 284 283 283 280 283 287 289 288 288 288 288 288 288 288 288 288 288 289 289 289 287 287 287 288 288 289 289 289 289 289 290 291 291 291 292 292 292 294 294 294 295 294 295 296 296 295 295 295 297 297 298 301 303 302 301 301 302 304 305 306 306 307 308 310 311 313 317 321 321 322 322 322 322 321 320 320 320 320 321 321 322 323 323
285 283 284 282 285 284 285 282 283 282 283 283 282 283 280 281 278 282 284 286 287 287 286 287 287 287 287 288 288 288 288 288 288 288 288 288 288 289 288 289 289 289 289 289 289 290 290 290 291 292 292 292 292 292 293 293 294 295 295 294 294 295 294 294 294 295 298 300 301 301 299 300 302 304 305 306 306 307 309 310 311 312 314 317 321 322 322 322 321 320 319 320 320 321 320 320 319
286 286 280 281 280 281 284 284 283 282 284 282 282 273 277 278 281 283 285 284 284 284 285 285 285 286 287 287 287 287 288 287 287 287 288 288 289 288 287 288 289 288 289 289 289 289 291 291 291 292 292 291 293 292 293 292 293 294 295 294 295 293 293 293 294 294 295 296 297 298 299 299 300 302 303 304 305 305 305 307 308 309 310 312 314 319 321 322 321 321 320 319 318 318 318 319 318
283 280 282 276 275 276 282 282 281 283 283 284 284 274 274 278 280 283 284 284 283 283 283 284 283 284 285 286 286 286 286 287 286 287 287 288 288 289 288 288 288 288 288 288 288 288 289 290 291 290 292 290 291 291 291 291 292 292 293 293 293 294 293 293 293 293 293 294 294 294 296 297 297 300 301 302 304 304 303 304 304 306 307 309 310 312 316 321 321 321 320 319 318 317 317 317 317
278 277 276 276 276 277 279 284 281 278 281 283 282 274 275 277 280 282 283 283 282 281 283 283 283 283 283 284 284 285 285 286 286 286 286 286 286 287 287 287 287 288 287 287 288 288 288 289 290 289 289 289 290 292 291 291 291 291 291 295 292 293 292 292 293 292 292 293 294 293 294 294 294 295 297 300 301 302 302 301 302 303 303 305 307 308 311 313 318 320 321 320 318 317 316 315 315
279 277 276 275 277 276 276 282 282 281 279 283 280 275 276 277 280 281 282 282 281 281 281 282 282 282 283 284 284 284 285 285 286 286 286 286 286 286 287 287 287 287 288 287 287 287 287 288 289 288 288 289 289 290 290 290 291 290 290 291 291 292 292 292 292 292 292 292 293 292 293 293 293 293 294 296 298 300 301 301 302 302 302 302 303 305 307 309 310 313 318 320 320 318 317 316 315
277 277 275 277 275 275 275 278 283 281 280 278 280 277 275 277 279 280 281 281 281 281 281 282 282 283 283 283 283 283 284 284 284 285 286 286 286 286 286 290 287 286 287 287 287 287 287 288 288 290 288 289 289 289 290 290 290 290 290 290 291 290 291 292 291 292 291 291 292 292 292 292 293 292 293 293 294 296 298 299 299 301 301 301 301 303 304 307 308 309 309 314 319 318 318 317 316
275 275 275 275 276 276 276 275 279 278 280 278 278 277 276 277 279 280 281 281 280 281 281 282 282 282 283 283 283 283 283 284 284 285 285 286 286 286 286 286 286 286 287 287 287 287 287 287 288 288 288 288 288 288 289 289 289 289 289 289 289 290 290 291 291 291 291 291 291 292 292 292 292 292 292 293 292 293 293 295 295 297 298 299 299 300 301 302 304 306 308 309 312 317 318 318 317
276 276 275 276 275 276 277 279 281 279 277 276 275 275 275 277 278 279 280 281 280 281 281 282 282 282 282 282 283 283 283 284 285 285 286 286 286 286 285 286 286 286 286 287 288 287 287 287 287 287 287 288 288 288 288 287 287 287 286 287 287 288 289 290 290 290 290 290 291 291 291 290 291 292 291 291 292 292 292 292 292 294 295 296 297 297 299 300 301 302 304 305 306 308 314 317 317
277 276 276 275 276 278 279 278 282 281 276 276 274 275 275 277 277 278 279 280 281 280 281 281 281 282 282 282 282 282 283 284 285 285 285 285 286 286 286 285 285 285 286 286 286 286 286 286 286 286 287 287 288 287 287 286 285 285 286 285 285 286 288 289 288 289 289 290 290 290 291 291 290 290 291 291 290 291 291 291 291 292 292 293 295 295 298 300 301 301 301 302 302 302 304 312 317
277 277 276 275 275 277 279 279 280 282 276 276 277 275 276 276 277 278 278 279 280 280 280 281 281 281 282 282 282 282 283 283 284 284 285 284 285 285 285 285 287 284 285 285 285 285 286 286 285 286 286 287 287 287 286 286 286 285 284 285 285 286 286 286 286 288 288 289 289 289 290 290 290 290 291 290 290 290 290 290 290 291 291 291 293 294 296 298 299 299 299 298 300 300 301 305 308
276 276 275 275 276 276 278 278 279 281 278 276 277 275 276 277 278 279 278 278 279 280 280 281 281 281 282 282 282 282 282 283 283 284 284 284 284 284 284 285 284 284 284 284 284 285 285 286 285 285 286 286 286 288 287 286 286 286 285 285 285 285 286 287 287 288 288 288 288 288 289 289 289 289 289 290 289 289 289 289 289 290 290 291 290 291 292 294 296 297 297 297 296 298 300 302 304
275 275 275 275 276 275 276 279 278 280 276 276 276 274 276 278 277 277 279 277 279 278 280 279 280 281 281 282 282 282 282 282 282 282 283 284 284 284 284 284 284 284 284 284 284 284 285 287 285 285 285 285 285 288 290 287 288 286 286 286 286 285 285 287 285 286 286 287 287 287 287 288 288 288 288 289 289 289 289 289 289 289 290 290 290 289 290 291 293 294 295 296 297 294 295 296 300
275 276 274 274 274 276 276 277 277 277 278 278 277 277 275 277 275 276 278 278 278 279 278 279 280 280 280 280 281 282 282 282 282 282 283 283 283 284 284 285 284 284 284 284 284 284 285 284 285 285 285 285 285 288 286 287 286 285 285 285 285 284 285 284 284 284 285 286 286 286 286 287 287 287 288 288 289 288 289 289 289 289 289 289 290 289 290 290 291 292 293 293 294 294 293 295 297
274 276 275 276 276 275 275 275 277 274 274 277 276 270 270 275 275 274 276 276 278 277 278 279 278 278 279 280 280 281 282 281 282 282 283 283 283 283 284 284 283 283 284 284 283 284 284 285 285 284 285 285 285 285 286 287 285 284 283 283 282 282 281 282 282 282 283 283 284 285 286 286 287 287 287 287 287 289 288 289 289 289 288 289 289 289 290 290 290 290 291 292 292 294 295 294 294
271 275 275 277 276 275 275 275 277 273 272 277 276 271 263 273 276 276 276 275 275 276 275 276 276 277 278 279 280 280 280 281 282 281 282 282 283 282 283 283 283 283 285 284 284 284 284 285 284 284 284 286 286 285 285 287 284 284 283 282 283 281 281 282 283 283 283 284 285 284 285 286 286 286 286 287 287 287 288 288 288 288 288 288 289 289 289 289 289 290 291 290 290 292 294 292 292
273 274 276 276 276 275 275 276 277 275 276 278 273 272 267 270 275 277 276 274 274 274 276 275 277 277 277 278 278 279 280 280 281 281 282 282 282 282 282 283 283 284 283 283 283 283 283 284 284 284 284 286 284 284 285 285 284 284 282 282 284 282 282 282 283 283 284 285 284 284 284 285 285 286 286 286 286 286 287 287 287 287 287 288 289 288 288 289 290 290 291 291 291 291 292 292 292
276 275 276 275 276 275 275 276 276 275 275 274 273 275 271 268 273 276 274 274 273 274 275 276 277 277 277 278 278 279 280 280 280 281 281 281 282 282 283 283 283 283 283 283 283 282 283 283 284 284 283 283 283 283 286 283 286 284 282 282 281 283 283 283 283 283 283 284 283 283 283 284 284 285 285 285 286 286 287 287 286 286 287 287 288 288 288 288 288 289 289 289 289 290 291 292 292
275 277 277 276 276 276 276 275 275 273 270 266 271 273 265 268 271 274 275 273 273 274 275 275 276 278 277 278 279 279 280 280 280 281 281 281 282 282 282 282 282 282 282 284 283 282 282 282 283 283 282 282 283 283 283 283 283 284 282 282 281 281 282 282 282 282 282 283 282 282 283 283 284 284 284 285 285 285 286 286 286 286 286 287 289 287 287 287 288 288 289 289 290 290 291 291 292
277 277 276 274 273 274 272 271 271 266 262 267 272 273 271 266 272 275 273 274 275 274 274 274 275 276 277 278 278 280 280 280 280 280 281 281 282 282 281 281 281 282 282 281 282 281 282 282 281 281 282 282 283 283 282 282 282 282 282 282 281 281 281 281 281 281 282 282 281 282 282 283 283 283 284 284 285 285 285 286 286 286 286 287 287 286 286 287 287 288 289 289 289 289 289 290 291
277 274 274 274 273 271 270 262 264 264 259 264 272 271 272 262 268 275 277 275 274 277 276 275 277 278 277 277 278 279 279 280 280 280 280 281 281 281 281 280 281 281 281 281 281 282 282 282 281 281 282 282 282 283 282 282 282 281 281 281 281 281 281 281 280 280 281 281 281 281 282 282 282 283 283 283 284 284 285 285 285 285 285 285 285 286 286 287 287 288 288 288 289 289 290 290 290
276 273 273 269 262 260 261 259 263 260 259 268 270 270 266 269 273 273 278 276 275 274 277 278 277 278 277 277 278 278 279 279 279 279 279 280 280 280 279 280 280 281 281 281 281 281 281 281 280 280 281 281 281 281 281 281 281 281 281 281 281 282 282 281 281 281 281 281 281 281 281 281 282 282 282 283 283 284 285 284 284 285 285 285 286 286 286 286 287 287 287 287 288 288 289 289 289
275 272 268 259 260 253 256 251 252 258 265 269 270 269 268 271 273 274 277 276 275 275 276 278 277 276 277 277 278 277 278 277 278 278 278 278 279 280 279 279 279 280 280 281 281 282 280 281 280 280 281 281 281 281 281 281 281 281 281 281 281 281 281 282 281 281 281 282 282 281 281 281 281 281 282 282 283 284 284 284 285 285 285 285 285 285 285 286 287 286 286 286 287 288 289 289 289
273 274 273 269 258 261 259 252 262 262 263 266 266 265 262 268 272 276 275 275 275 275 276 277 276 275 276 276 276 276 276 277 277 278 279 279 280 279 279 280 279 279 280 280 280 280 279 280 280 280 279 280 280 280 281 281 281 281 281 281 281 281 281 282 281 282 282 281 282 281 281 282 282 282 282 283 284 284 284 284 284 285 285 284 285 285 285 285 285 286 286 286 287 288 288 289 288
273 273 272 265 264 266 264 253 258 255 257 262 261 267 269 273 276 279 275 275 275 277 276 278 278 277 276 275 276 276 277 277 278 278 279 279 279 279 279 279 279 279 279 279 279 279 279 279 279 280 279 280 280 281 280 280 280 281 281 280 280 282 283 282 282 282 282 282 281 282 282 282 282 282 283 283 283 284 283 283 284 284 284 284 284 284 284 284 285 285 285 285 285 288 287 287 288
273 272 264 270 274 266 258 260 259 259 255 261 259 268 272 273 274 276 275 274 275 276 275 275 275 274 274 275 276 276 277 277 277 278 278 279 279 279 279 279 279 279 279 279 279 279 279 279 279 279 279 279 279 280 280 280 280 280 280 280 280 280 280 280 280 280 281 282 282 282 282 282 282 283 283 284 283 283 283 283 283 283 284 284 284 284 284 284 285 285 284 284 284 286 287 286 287
273 265 272 275 273 268 268 263 255 250 256 261 262 265 268 268 267 275 275 273 274 274 274 274 274 273 274 275 276 276 277 277 277 277 278 279 279 279 279 279 279 279 278 278 279 279 279 279 279 279 279 279 279 279 279 280 279 279 279 280 280 280 280 280 280 280 281 281 281 282 282 282 282 283 283 283 283 282 283 284 283 283 283 283 283 284 284 284 284 284 284 284 285 285 285 286 286
276 274 277 274 261 264 260 259 258 257 256 257 262 264 265 269 271 272 272 273 274 274 274 273 274 274 274 275 275 276 276 277 277 278 278 278 278 279 279 279 279 279 279 278 279 279 279 278 279 279 279 279 279 279 279 280 279 279 280 280 279 280 280 280 281 281 281 281 281 281 281 282 282 282 282 282 282 282 282 282 282 282 282 283 283 283 284 284 284 283 284 284 285 285 285 284 285
271 276 275 274 266 261 261 261 258 259 256 256 262 258 266 270 271 273 274 274 275 274 274 273 274 274 275 275 276 276 277 277 277 278 278 279 279 279 279 279 279 279 279 279 278 278 278 279 279 279 279 279 278 278 279 278 279 279 279 279 279 280 280 280 280 281 280 281 281 281 281 281 282 282 282 281 281 281 281 281 281 282 282 282 283 283 283 283 283 283 283 284 284 284 284 284 284
272 270 264 268 266 270 267 263 262 262 252 253 253 260 263 270 272 274 275 276 276 275 275 274 275 275 275 276 276 276 277 277 278 278 279 279 279 279 279 279 279 278 278 279 278 278 279 279 278 279 278 278 278 278 278 278 279 279 279 278 279 279 279 280 280 280 280 280 281 281 281 281 282 281 281 280 280 280 281 281 281 282 282 282 282 282 283 283 283 283 283 283 284 284 283 284 284
271 272 271 270 266 265 262 264 264 258 260 258 251 262 268 273 275 274 275 276 276 275 274 275 274 275 275 276 276 276 277 278 278 278 278 279 279 279 279 279 278 277 277 277 278 278 278 278 278 278 278 278 278 278 278 278 278 279 278 278 278 279 279 280 280 280 280 280 280 281 281 281 280 280 280 280 280 280 281 281 281 281 281 281 282 282 282 282 282 282 282 283 284 283 283 283 283
Wind_Speed
11 9 8 5 1 1 1 3 1 2 1 1 2 1 1 1 1 5 6 8 4 1 0 3 3 2 0 2 12 8 4 6 2 2 2 2 4 2 3 3 1 4 5 3 2 3 4 6 9 8 10 11 11 10 10 8 8 6 4 9 8 8 7 7 7 6 6 6 7 5 6 6 5 5 6 4 5 6 5 6 6 7 6 9 9 7 4 2 4 4 7 6 7 7 8 8 8
8 8 7 3 1 1 1 1 3 1 5 2 2 1 1 3 3 2 6 3 1 4 5 1 2 5 8 9 6 2 8 6 0 2 2 2 3 3 4 3 1 4 4 3 3 3 3 4 6 7 7 9 9 8 9 8 7 7 6 7 7 7 7 6 7 6 6 7 7 7 7 7 5 4 4 4 5 5 5 5 5 6 8 7 7 7 3 4 5 5 8 8 7 8 8 9 8
9 8 5 2 1 2 1 3 1 1 1 1 3 3 2 6 5 8 5 6 7 7 5 1 1 5 4 6 10 8 4 2 3 4 1 3 3 4 4 2 3 3 4 3 3 3 3 4 6 6 6 8 7 7 8 6 6 7 6 7 7 7 7 7 7 7 7 7 6 5 6 7 6 5 5 6 5 5 6 4 4 4 8 7 8 7 6 6 8 7 8 8 7 9 9 9 8
6 1 0 2 2 3 1 3 4 6 2 3 1 1 4 4 8 8 9 8 9 5 1 4 6 4 5 11 4 0 3 5 3 5 3 6 2 5 3 4 4 4 5 4 3 3 3 4 6 6 4 6 6 7 7 6 5 5 6 6 7 7 7 7 7 6 7 7 6 6 6 5 5 5 5 5 6 5 4 5 4 4 4 7 4 5 8 7 8 9 10 9 6 7 8 8 7
6 3 2 2 3 0 1 0 2 2 2 3 2 0 5 4 9 10 9 9 4 4 4 2 5 2 5 7 3 5 7 9 4 6 3 4 6 1 4 4 4 5 5 4 4 3 3 5 6 5 4 4 6 7 5 5 4 4 4 4 5 6 6 6 6 6 5 5 6 6 6 6 4 6 5 6 7 7 5 6 6 5 2 4 2 4 2 6 8 7 9 10 10 10 9 7 6
1 3 1 0 0 1 4 2 1 5 1 1 3 4 6 6 9 10 9 4 4 10 3 5 3 2 5 4 3 4 6 7 8 4 3 6 6 3 4 4 5 5 5 4 4 3 3 5 6 5 4 2 3 6 5 4 5 5 4 4 4 4 5 5 4 5 5 5 5 6 6 6 4 5 7 7 8 7 7 8 8 7 5 4 3 5 7 6 8 6 6 7 7 7 8 8 7
3 3 4 3 2 3 4 3 3 2 4 2 2 5 7 9 10 9 10 5 14 5 11 3 3 5 7 1 3 4 3 5 2 6 5 4 5 4 4 5 5 6 5 5 4 4 3 6 5 5 4 2 1 4 4 3 4 4 4 3 3 4 5 4 4 2 3 4 5 5 5 5 4 6 8 8 9 7 8 8 9 7 6 5 5 6 8 8 9 8 7 8 8 8 8 8 8
0 1 1 3 0 2 2 2 3 1 3 4 1 3 8 10 10 6 8 6 6 7 9 5 7 13 5 3 6 8 12 13 8 7 7 4 3 4 4 4 6 5 5 5 4 3 5 5 5 4 3 1 2 3 4 3 2 3 3 3 3 4 4 4 4 4 4 4 4 6 6 7 5 6 7 8 9 8 6 10 9 9 8 7 7 7 8 9 9 10 9 8 9 9 9 8 6
3 5 0 5 2 3 3 3 2 1 0 4 6 3 6 8 7 5 9 6 1 6 13 8 5 9 3 2 11 13 14 20 14 7 11 7 4 3 4 4 5 5 5 4 3 3 3 4 5 5 5 4 4 2 2 2 0 1 2 4 4 5 5 5 5 5 6 5 5 5 6 8 6 7 8 8 9 9 8 8 8 9 9 9 8 9 9 10 10 11 10 10 9 7 6 6 5
1 1 1 2 4 3 2 2 4 2 3 4 3 10 9 11 8 8 5 15 10 2 12 10 12 16 10 15 10 19 12 19 19 18 14 11 7 5 5 4 4 4 4 4 3 3 2 3 4 5 4 2 5 2 1 1 1 2 2 4 5 5 6 6 6 7 7 7 7 6 6 6 7 7 8 6 8 8 8 8 8 10 9 7 8 7 9 8 9 10 10 10 8 9 8 8 7
0 5 2 4 4 5 4 2 4 1 4 5 3 8 6 9 7 8 11 8 11 9 11 15 7 10 13 8 8 4 16 22 21 19 20 18 18 15 10 11 12 11 8 6 6 4 2 1 2 2 6 3 3 2 3 1 2 2 3 3 5 7 7 7 6 7 8 6 7 7 7 7 8 8 6 7 6 8 6 9 9 8 8 6 6 8 8 9 9 10 10 9 9 8 9 8 8
1 2 1 5 3 6 3 8 2 1 2 8 9 8 9 9 8 12 15 16 13 12 12 15 4 3 14 8 11 13 17 23 16 14 16 18 18 20 19 16 21 21 20 17 14 12 11 7 4 2 3 1 3 4 4 3 1 2 3 3 3 5 6 6 7 4 8 9 8 7 7 7 7 8 6 6 4 6 6 11 8 10 10 7 9 7 7 8 10 10 9 10 11 10 9 9 9
4 1 7 6 1 3 1 6 1 1 4 8 4 8 9 5 12 7 9 16 16 20 17 17 4 12 6 8 4 10 21 20 16 13 15 16 14 15 17 18 19 20 19 19 19 19 18 15 11 10 11 8 5 2 2 4 3 1 2 3 2 4 5 5 3 2 6 10 4 4 4 5 7 7 9 5 4 2 6 10 8 11 9 12 10 8 7 7 9 10 11 11 11 10 10 9 9
4 4 5 3 1 3 4 2 1 6 7 5 2 7 7 4 4 5 13 21 19 11 11 14 7 2 19 4 10 14 14 16 12 13 12 17 16 17 17 16 18 19 19 19 18 18 19 17 15 14 12 10 10 4 2 5 8 4 1 2 2 3 3 3 3 3 4 3 3 3 4 5 6 6 5 5 5 5 8 7 8 11 9 10 10 9 9 8 9 10 10 9 8 9 10 10 10
1 1 6 5 3 2 3 5 1 5 3 4 7 8 6 12 10 15 17 16 18 11 5 28 6 11 7 11 9 13 15 16 9 11 13 17 20 20 20 17 18 17 21 22 21 19 18 17 17 14 16 13 12 9 7 1 4 4 3 2 2 3 3 2 2 3 3 4 2 2 3 3 4 5 4 4 4 4 6 8 9 8 8 9 10 11 11 10 10 9 8 9 9 9 10 10 10
4 6 5 6 3 5 2 2 2 4 3 5 9 8 7 14 13 18 15 13 10 18 26 11 24 10 7 13 10 13 14 12 7 12 14 18 16 15 16 18 16 17 16 22 21 20 18 17 16 14 15 15 12 10 8 8 7 4 1 4 4 4 5 4 4 3 2 3 2 2 3 3 3 2 4 3 3 6 8 7 8 11 10 9 9 9 11 12 10 9 10 10 10 11 10 9 8
1 7 8 4 6 4 1 1 1 6 1 6 9 9 7 9 7 16 9 11 25 14 19 14 17 12 14 12 9 10 11 11 18 24 22 19 16 16 15 15 14 16 14 18 19 16 17 20 21 14 16 17 16 14 13 12 10 13 8 6 6 3 7 9 4 4 3 4 3 2 3 3 3 3 3 3 4 3 5 7 8 10 14 14 10 12 12 13 10 10 10 10 10 10 9 8 8
7 7 4 10 2 6 1 1 0 1 4 7 11 7 10 10 7 2 5 22 14 15 18 11 14 14 9 8 10 10 14 23 25 27 23 20 17 16 16 15 18 13 13 13 18 18 15 16 18 19 15 17 16 14 13 13 14 12 10 10 8 5 1 2 6 5 4 4 4 4 3 4 4 3 4 4 4 4 5 7 7 9 12 13 15 15 14 11 9 10 12 11 10 8 7 4 4
8 4 6 7 1 1 3 2 3 1 6 4 10 11 14 11 4 6 15 16 15 18 16 13 14 14 12 14 15 18 20 23 24 24 25 24 18 20 17 13 14 15 15 12 15 19 16 13 16 16 18 16 16 16 13 14 16 14 13 13 8 11 10 7 5 6 4 4 4 4 3 3 4 4 4 6 5 6 6 7 7 7 8 11 14 13 13 16 13 11 15 12 10 9 5 3 3
5 7 10 5 1 3 4 3 3 3 3 9 15 12 24 13 7 4 20 16 20 21 14 16 18 16 16 15 16 16 19 21 23 22 23 22 20 18 19 18 15 15 14 12 12 12 16 16 17 16 14 14 15 13 13 13 13 13 14 15 14 11 8 7 8 8 6 6 5 4 4 4 5 5 6 9 8 5 5 7 8 8 8 8 9 8 9 10 13 16 15 12 10 4 4 5 6
4 8 4 2 0 3 10 5 4 4 3 9 10 16 23 16 13 9 6 23 18 14 15 13 13 13 13 14 15 15 19 23 22 23 22 21 18 16 15 15 14 12 10 9 11 14 17 16 15 16 16 16 16 13 14 14 13 14 14 14 13 13 13 11 8 8 7 9 10 7 5 5 6 5 5 4 5 4 5 5 5 5 5 5 6 4 5 6 6 4 5 6 5 7 4 4 4
5 5 2 2 1 6 7 5 9 12 6 14 12 16 7 2 22 18 22 18 11 10 10 12 11 11 13 14 15 16 20 22 22 22 21 21 21 18 15 13 12 11 11 13 15 14 17 16 16 13 15 17 16 13 13 12 15 15 15 15 13 13 15 16 16 15 14 13 11 8 8 8 7 5 5 5 5 5 5 5 5 5 4 5 4 5 5 4 4 4 4 5 5 6 6 6 5
15 6 8 10 5 7 5 5 4 8 12 15 17 7 8 20 11 11 20 17 10 10 9 9 11 10 11 11 13 20 20 20 21 21 19 20 20 18 16 13 14 15 13 13 11 12 14 17 17 15 15 15 17 15 12 12 13 12 13 14 15 15 14 16 16 17 17 19 20 20 14 9 6 7 7 6 5 4 5 5 5 5 5 5 5 6 6 6 6 6 6 7 6 5 6 5 5
16 8 6 11 11 12 4 9 7 15 23 17 12 9 14 14 23 5 19 10 10 9 9 8 7 10 8 17 20 19 18 18 19 17 16 17 17 17 14 16 14 11 12 13 14 12 16 20 18 17 16 16 14 14 14 13 12 12 12 13 14 16 16 16 14 13 15 17 17 16 17 17 15 11 8 8 8 6 6 6 5 5 5 6 5 5 5 5 6 5 6 6 7 6 6 6 6
12 8 5 4 12 6 6 5 9 15 14 10 12 19 10 19 9 11 15 11 9 8 7 9 7 9 17 20 19 17 18 17 18 15 15 13 14 13 15 13 14 14 18 17 13 15 17 18 19 20 17 17 14 13 14 12 13 13 13 13 13 13 14 13 12 13 14 13 15 18 18 15 15 17 17 15 10 9 8 6 5 6 5 6 5 6 5 6 6 6 6 7 6 6 6 7 6
5 6 6 8 9 9 7 11 9 7 4 10 23 15 9 2 8 20 10 11 9 7 6 7 8 20 18 18 16 16 16 17 14 16 14 12 12 17 18 16 15 19 16 14 14 14 15 16 19 20 18 15 13 12 12 13 14 14 15 15 13 12 12 11 13 13 13 14 15 18 17 16 16 15 15 15 17 16 11 8 7 7 6 6 5 7 7 6 7 6 6 7 7 7 7 7 7
2 8 10 13 7 9 7 9 8 9 11 17 21 17 11 15 6 7 9 10 8 7 6 5 16 18 16 14 14 14 15 16 15 11 13 12 14 16 15 15 17 14 14 14 14 13 12 16 18 18 18 16 13 14 13 13 13 14 14 13 13 13 12 12 12 11 12 13 13 15 16 16 14 14 14 16 15 16 17 13 9 7 7 7 6 7 7 7 7 8 8 8 8 8 8 8 7
2 2 9 10 10 15 14 9 8 3 2 9 17 15 15 10 8 7 4 6 7 6 8 13 16 16 14 14 14 12 13 12 10 11 16 17 14 13 15 13 13 13 15 14 12 11 14 16 16 17 17 16 16 15 14 14 14 14 13 13 14 14 13 13 12 11 11 11 13 14 14 14 14 14 16 16 15 15 14 16 17 12 10 9 8 8 9 9 9 9 9 8 9 8 8 7 7
3 4 11 4 12 14 15 8 7 4 1 4 3 16 19 16 9 8 6 5 7 7 11 12 14 13 13 12 11 11 11 11 10 13 14 12 12 12 14 12 11 12 10 12 12 13 14 13 14 16 16 15 17 16 14 13 13 12 13 12 12 13 13 13 14 14 12 11 12 13 14 14 12 14 14 15 14 14 14 15 14 15 16 16 13 11 11 10 8 8 8 8 8 8 8 8 7
4 12 2 7 8 12 15 8 13 3 6 6 3 6 8 9 9 9 9 7 6 6 11 10 10 10 10 11 10 10 11 11 13 12 10 10 11 11 12 11 11 10 9 9 11 15 11 10 10 11 14 16 15 13 13 13 13 11 10 10 11 12 12 12 13 13 13 12 12 14 13 13 12 10 13 14 13 13 15 14 15 15 15 16 17 15 11 9 9 9 10 8 8 8 9 9 8
8 5 5 4 4 3 8 6 13 10 6 12 6 7 4 6 7 8 8 7 6 6 8 7 8 8 8 9 10 11 11 10 10 10 11 11 9 9 9 9 9 9 8 10 12 10 11 12 10 11 13 14 13 14 13 11 11 11 10 11 11 11 11 10 10 11 12 12 13 14 15 14 14 13 12 12 12 12 13 13 15 13 14 15 14 14 16 12 9 10 9 9 9 8 9 9 9
4 6 6 6 6 1 5 11 11 4 4 8 13 8 4 4 5 7 5 6 5 4 7 6 6 6 6 6 7 8 7 6 8 8 7 6 6 6 7 8 7 9 10 9 9 10 12 12 12 12 14 15 14 13 11 10 10 10 10 10 10 11 10 10 10 11 10 11 12 13 16 16 17 16 14 12 11 11 10 12 12 13 16 14 13 15 14 15 14 11 10 10 10 10 9 10 8
7 7 1 4 4 3 3 12 9 6 3 17 7 9 3 3 4 4 5 4 4 2 5 5 4 4 5 5 5 5 6 6 7 7 7 5 5 4 5 6 7 7 7 9 10 10 11 12 12 14 15 14 14 13 12 11 10 11 11 10 10 10 10 10 9 9 9 11 11 12 14 15 16 17 16 15 12 12 11 11 11 12 13 13 14 14 13 13 14 16 14 12 10 11 10 11 9
7 5 5 1 3 4 4 6 13 12 7 8 9 11 4 2 0 2 3 3 1 1 4 3 3 3 3 3 4 4 5 5 7 6 6 5 4 4 4 5 5 5 6 8 9 10 11 10 10 11 11 11 11 11 11 10 10 9 9 8 9 10 10 10 10 10 11 10 11 12 14 14 15 16 16 16 13 12 11 11 12 13 12 13 13 13 13 13 13 13 15 16 13 12 11 11 11
3 3 6 6 5 7 5 5 5 8 11 15 8 12 5 3 0 1 1 2 0 1 3 2 2 2 2 3 3 4 4 5 5 3 4 4 4 4 4 4 5 5 6 7 9 9 10 10 10 12 12 12 11 10 9 8 9 7 6 8 9 9 9 9 9 10 9 10 11 12 13 13 15 15 15 16 14 14 13 12 13 14 13 13 13 13 13 14 14 14 16 17 17 14 12 12 12
5 3 3 2 6 5 4 2 1 5 7 10 5 7 4 1 1 1 1 2 1 1 1 2 2 2 2 3 3 4 4 4 3 3 3 4 4 4 4 4 4 5 6 7 9 10 11 12 10 11 13 12 10 10 9 10 10 12 14 13 12 11 10 10 9 10 11 11 12 12 13 13 14 15 15 15 14 14 14 14 14 12 11 10 11 12 13 13 16 19 18 18 19 18 15 12 12
4 4 4 4 3 1 1 1 3 1 3 4 3 3 2 1 0 1 2 2 2 1 1 1 1 1 2 2 3 3 3 3 3 4 3 4 4 4 4 4 4 4 5 7 8 10 12 12 12 14 12 13 13 13 13 13 14 14 12 13 12 10 10 9 9 9 10 10 12 12 12 11 14 15 15 15 15 14 12 13 13 14 13 11 11 12 12 13 12 12 13 12 15 18 16 16 13
6 7 6 6 2 2 0 1 4 3 3 0 1 3 2 1 0 1 2 2 0 0 0 1 1 0 1 2 2 2 2 3 5 5 6 4 4 5 4 4 4 6 7 7 8 9 9 10 11 10 10 11 12 12 10 10 10 8 8 10 10 10 11 12 12 10 11 9 11 12 12 13 13 14 14 15 15 14 14 13 13 13 14 14 13 12 12 12 13 13 13 15 11 12 14 15 17
3 6 4 4 3 3 6 2 4 5 5 1 0 2 2 2 1 1 1 2 2 2 2 1 0 1 1 1 1 2 3 3 4 4 4 4 5 5 4 4 5 4 5 6 5 6 7 9 9 8 8 8 9 10 10 10 9 9 9 8 10 9 6 7 8 9 9 11 9 11 12 13 13 12 14 15 14 14 14 14 13 13 13 14 14 14 13 13 11 12 13 12 15 11 10 12 14
5 4 6 2 2 1 1 2 5 6 2 4 2 3 2 1 2 3 2 2 2 2 2 2 2 1 0 0 0 0 1 2 3 4 4 5 4 4 4 5 5 5 5 5 6 6 6 8 8 8 7 6 6 7 7 7 8 7 6 7 6 7 8 7 4 3 8 13 16 13 12 13 13 13 14 13 14 14 15 14 13 13 13 13 13 14 14 13 12 12 11 11 11 16 14 15 12
3 4 4 1 1 1 1 1 5 4 1 3 1 2 3 5 3 2 3 1 1 2 2 1 1 2 2 1 0 1 1 1 3 4 4 5 5 5 4 4 5 5 5 5 5 5 5 6 7 7 6 5 5 6 6 5 6 6 6 5 3 4 3 5 9 12 11 9 9 13 15 13 12 12 13 14 14 15 13 12 13 13 13 13 12 12 13 12 12 10 11 10 11 11 16 14 15
3 1 2 0 1 3 3 2 1 2 2 1 1 2 5 3 6 7 4 1 2 1 0 2 3 3 3 2 1 2 1 2 2 3 4 4 4 6 6 6 5 5 5 5 4 4 4 5 5 5 5 5 5 5 6 5 7 9 11 14 17 17 16 15 16 16 16 15 15 12 11 12 13 13 12 13 14 14 14 12 12 11 11 11 10 11 11 11 12 13 11 10 11 10 11 14 16
2 0 1 1 3 2 1 3 1 1 1 0 1 2 6 1 7 7 6 4 5 3 2 3 3 3 2 2 2 2 2 3 4 3 4 4 5 5 5 5 5 4 5 4 4 4 4 4 5 5 5 4 4 5 5 5 6 8 9 10 10 11 12 10 9 9 10 11 10 13 12 12 13 13 13 13 12 12 13 13 12 12 11 10 11 11 11 11 10 11 11 11 11 10 10 13 15
1 1 2 4 0 2 3 2 4 1 1 0 2 3 3 7 7 5 6 5 5 4 5 3 4 4 3 3 2 2 3 3 4 5 5 4 3 2 4 5 4 4 4 4 4 4 4 4 4 5 4 4 4 4 4 5 7 7 8 8 9 10 10 11 12 11 10 10 11 12 12 12 13 12 13 13 12 13 12 12 13 13 13 11 12 11 12 10 10 8 9 12 10 8 10 10 14
2 2 2 5 3 3 1 1 1 1 1 6 1 0 0 5 5 2 4 5 5 8 6 5 4 4 4 4 4 3 4 4 4 4 5 4 4 5 4 6 6 5 4 4 4 4 3 4 4 4 4 3 3 4 4 5 6 8 9 9 10 8 9 9 9 9 10 11 13 12 11 12 11 13 12 13 13 12 13 13 13 14 13 13 13 13 12 11 11 12 10 10 10 11 10 10 12
1 2 2 2 3 3 1 1 2 2 1 5 4 2 2 8 4 5 1 2 8 7 8 6 6 5 4 4 4 4 4 5 4 4 4 5 4 6 5 4 5 4 4 4 4 3 4 3 3 4 4 4 4 5 5 7 8 8 9 9 10 11 9 9 8 10 10 10 12 13 11 11 11 12 12 11 13 12 12 12 12 12 12 14 14 12 12 14 12 12 12 11 11 12 9 11 11
2 3 2 4 5 3 2 5 2 3 1 7 2 0 1 6 5 9 10 9 6 5 3 2 3 4 4 4 4 4 4 5 5 5 5 4 5 4 4 5 5 5 4 3 3 3 3 3 4 6 6 6 6 6 5 6 5 5 6 8 9 11 12 10 11 12 11 11 11 11 11 11 11 11 11 13 12 11 12 13 12 13 13 12 12 13 14 11 13 13 11 12 13 11 10 11 13
1 1 2 2 1 6 1 3 3 1 6 4 0 3 0 3 5 5 6 2 5 11 8 7 5 4 3 3 4 4 4 5 4 4 5 5 7 7 5 5 4 5 4 5 5 5 7 7 6 6 6 5 5 5 5 4 4 4 5 7 9 10 11 11 12 13 14 13 13 12 11 10 11 10 11 10 11 11 11 12 12 12 12 12 12 11 12 13 13 12 11 11 10 11 11 12 10
5 3 6 2 4 4 3 2 2 5 6 1 1 3 3 11 9 3 6 5 3 4 8 9 6 2 2 3 4 4 4 4 4 4 4 4 4 5 5 4 4 6 6 6 7 5 5 4 4 3 5 5 5 5 5 4 5 5 7 8 9 10 11 12 12 13 13 12 11 12 13 12 11 12 10 11 10 12 11 13 13 11 11 12 12 12 11 13 11 11 11 13 12 13 11 12 11
9 5 2 3 1 2 2 4 2 5 3 2 1 1 5 4 6 3 7 6 3 4 5 6 5 3 1 2 4 5 6 4 5 4 4 5 5 5 4 4 4 4 5 6 6 5 5 4 4 4 6 5 5 5 5 6 7 7 7 9 9 9 10 11 11 12 13 11 11 12 12 11 13 13 14 11 10 11 10 11 13 12 13 12 12 14 13 11 13 11 13 13 14 12 12 14 13
2 2 1 1 4 1 3 2 3 3 3 5 4 3 6 1 2 3 1 1 0 3 5 4 3 2 2 3 4 5 5 5 4 4 5 5 6 4 4 5 5 5 5 6 5 5 4 5 4 5 6 6 6 6 6 7 8 8 7 8 9 9 10 11 10 11 12 13 12 12 12 13 12 12 11 12 11 11 12 12 13 15 14 14 12 13 13 12 12 11 10 11 11 11 13 13 14
1 1 2 3 1 1 1 2 1 2 4 7 1 6 1 1 1 1 1 1 3 3 3 1 2 2 2 3 4 5 6 6 5 4 6 6 5 5 4 5 5 5 6 5 6 6 4 5 5 5 6 7 6 6 6 6 7 7 8 9 10 10 10 10 10 10 11 11 13 12 13 13 12 12 12 11 11 11 12 13 13 12 13 13 12 14 13 12 13 13 11 11 13 9 14 13 14
2 2 1 1 1 4 3 1 1 1 3 8 1 9 5 5 2 1 2 3 2 0 2 1 2 3 3 4 5 5 5 5 6 5 5 6 6 5 5 5 6 6 6 6 6 6 5 6 5 7 7 6 6 6 6 6 7 8 9 10 10 11 11 12 12 13 14 13 11 12 12 13 12 12 12 9 11 11 12 12 13 13 13 13 15 14 14 13 12 12 12 13 13 12 11 13 12
2 2 2 1 1 3 2 2 3 4 1 7 2 5 6 4 6 1 0 2 4 4 4 4 3 3 4 6 5 5 6 6 6 7 7 7 7 7 8 7 7 7 7 7 7 6 5 6 6 7 7 7 7 6 7 7 8 9 9 10 11 11 12 12 13 14 14 12 12 11 11 12 12 11 11 11 11 11 11 13 13 13 12 14 14 14 13 14 13 12 12 12 12 13 13 12 13
2 2 2 1 1 1 3 2 3 3 4 6 6 4 6 5 8 2 6 7 9 8 5 4 4 4 5 6 7 6 6 6 7 7 7 7 7 7 7 8 8 7 7 8 8 8 7 6 7 7 8 8 7 7 6 7 7 7 8 10 11 12 11 12 12 14 14 14 15 14 13 13 13 11 12 11 12 12 12 12 11 12 13 13 13 14 15 11 13 12 12 12 11 12 12 15 14
2 1 1 0 3 2 0 1 2 5 6 5 7 5 7 6 4 8 9 11 10 7 6 5 6 5 5 5 5 6 6 6 7 7 8 8 8 8 8 8 9 9 8 8 8 7 8 8 7 7 7 6 7 8 7 8 8 8 10 11 11 11 12 12 13 13 14 15 15 14 15 14 13 12 11 13 11 13 12 13 12 12 13 13 14 14 13 14 12 12 12 11 11 14 14 14 14
5 3 2 1 1 1 2 0 2 3 3 3 2 7 6 6 5 6 10 10 11 10 8 5 5 5 5 6 7 6 7 7 7 8 9 9 9 8 9 8 8 8 8 8 9 9 9 7 7 8 8 8 8 8 7 8 8 9 10 12 13 12 13 12 13 14 14 14 14 14 14 13 13 12 13 11 13 12 14 12 14 12 14 13 14 14 13 12 12 13 12 14 15 13 15 13 12
1 1 0 2 0 0 1 7 2 1 1 4 2 12 6 6 2 2 5 6 5 5 4 4 4 5 6 7 6 6 7 8 8 9 9 10 9 9 9 9 8 8 9 10 10 8 8 8 9 8 7 7 8 8 8 9 8 9 11 12 13 12 12 12 13 13 14 14 14 14 13 13 13 13 12 13 12 13 11 14 12 13 15 15 15 16 13 12 13 14 14 12 10 14 14 14 12
Wind_Direction
329 332 319 314 336 213 76 2 187 312 53 258 320 357 7 11 243 6 350 350 33 285 170 323 4 92 49 103 121 127 65 81 342 104 78 261 314 306 330 338 33 101 111 113 110 111 129 136 150 155 136 131 127 130 122 120 124 139 157 156 172 172 136 145 153 160 152 148 158 170 169 166 181 182 172 187 188 176 168 163 169 178 169 170 165 225 198 142 163 131 79 78 108 105 96 106 108
324 323 321 298 249 80 210 122 99 349 40 29 256 88 283 304 25 12 322 322 217 297 321 53 6 76 66 105 134 119 46 59 161 340 286 241 293 24 341 0 32 105 101 92 76 88 99 111 120 129 137 133 133 141 127 129 144 150 174 176 173 148 152 160 166 163 169 158 167 187 185 169 176 211 202 197 226 198 200 182 191 177 177 179 172 169 149 222 114 110 114 120 128 119 124 122 118
325 335 333 32 24 82 68 31 259 78 89 28 279 194 318 19 346 318 291 276 279 280 280 316 151 28 359 45 31 32 22 339 20 6 225 331 33 313 13 23 51 56 80 64 67 68 71 94 106 107 124 132 137 141 126 136 160 162 171 182 174 165 171 175 174 175 178 165 175 200 214 176 181 198 215 212 225 232 205 210 197 198 177 178 194 171 173 196 140 140 127 131 142 137 128 123 124
320 269 203 18 219 32 64 23 94 130 122 206 334 349 35 343 319 297 288 279 293 294 290 27 48 301 62 32 337 28 40 1 31 344 348 348 323 298 49 67 67 63 58 50 50 57 62 87 100 90 102 132 149 141 134 151 161 176 173 191 174 176 180 179 182 187 184 174 179 204 216 222 175 210 214 223 227 246 214 212 229 194 216 170 230 276 187 205 147 151 144 142 148 119 115 122 127
330 313 129 95 109 289 106 161 137 106 162 202 139 331 8 336 309 318 313 319 346 38 21 105 89 3 82 81 359 61 323 296 305 8 323 291 317 296 80 71 74 72 58 46 49 47 48 80 92 95 73 133 158 140 150 147 161 190 195 197 184 188 186 193 190 189 201 189 197 203 223 238 191 223 223 231 227 224 248 230 213 219 164 174 217 51 26 139 138 151 158 158 158 139 132 131 120
6 32 359 123 359 156 64 72 37 81 40 239 26 334 328 330 320 315 303 302 51 44 24 57 110 129 43 33 44 66 346 25 316 336 342 326 349 19 76 71 78 73 60 52 50 43 44 69 76 66 56 71 175 149 153 156 168 184 210 221 196 206 209 202 211 198 206 213 212 217 227 241 227 241 245 241 233 224 231 237 229 208 191 203 181 127 122 142 145 168 163 154 153 143 135 131 127
344 28 355 42 28 54 171 130 120 144 17 32 51 326 326 330 326 319 349 5 17 45 14 64 88 94 76 13 65 97 58 5 334 328 332 309 24 26 59 77 83 84 63 54 52 45 48 73 73 69 52 16 189 152 160 171 181 190 197 228 256 239 238 248 236 253 244 239 235 239 244 250 248 251 251 246 235 228 242 241 233 219 196 202 193 175 169 170 173 177 186 164 155 154 148 148 150
64 133 316 109 205 55 66 154 84 139 8 57 69 327 347 334 327 349 360 44 9 34 342 356 99 90 85 350 81 9 11 3 338 311 330 16 39 49 60 87 98 94 70 64 60 55 54 65 80 69 48 58 341 156 154 186 212 195 208 214 231 243 252 259 265 267 259 255 262 260 264 267 259 259 262 258 246 235 231 246 234 230 220 208 213 199 187 184 181 180 195 183 174 166 166 164 168
347 85 269 82 88 37 72 69 101 359 310 357 351 4 339 339 327 349 34 28 108 23 24 350 268 74 324 51 69 17 5 351 356 349 356 345 11 45 70 79 104 94 76 73 70 57 74 59 90 67 34 353 33 98 145 164 225 201 208 222 230 221 231 239 251 254 248 249 253 259 263 263 262 265 264 261 254 241 247 243 246 239 221 220 218 220 210 194 191 194 192 190 190 183 181 178 172
23 85 227 125 131 88 58 360 66 337 12 303 333 354 349 339 339 20 37 38 11 335 23 354 72 97 85 47 14 18 352 357 1 12 7 355 4 19 42 47 58 87 79 74 47 64 63 89 108 114 85 24 25 95 103 57 339 34 269 254 248 262 250 237 241 243 250 246 242 244 250 266 267 269 277 266 265 259 245 255 247 249 238 240 227 226 230 225 214 196 192 198 192 194 195 190 186
202 15 135 78 46 104 123 75 87 11 7 324 328 354 355 338 348 31 34 64 30 36 10 350 73 81 72 58 64 325 5 11 7 13 20 21 23 14 16 25 18 15 27 24 11 29 67 115 66 96 143 144 66 82 115 62 343 23 347 316 294 274 272 277 272 290 283 292 282 290 293 298 296 288 282 282 265 254 254 261 256 254 256 240 234 226 223 202 209 204 199 209 213 203 204 199 200
70 35 29 101 128 143 211 116 59 351 272 14 9 346 348 341 29 36 25 44 11 19 30 357 4 120 58 45 17 357 358 14 2 4 22 30 30 31 35 36 35 30 26 16 13 5 359 352 358 24 355 142 136 146 158 152 152 2 8 341 305 298 296 288 297 307 323 294 312 314 302 295 296 297 301 289 291 290 259 280 292 284 254 261 237 226 218 201 200 202 205 209 221 220 212 205 204
113 97 88 78 78 69 98 85 72 56 23 15 319 324 338 1 50 46 55 52 31 35 8 341 3 46 48 33 350 349 13 2 3 8 27 38 33 34 35 36 35 34 30 28 25 17 9 8 2 349 352 356 32 36 58 141 137 306 13 354 333 320 325 327 330 14 285 298 327 296 309 312 306 301 297 305 318 287 338 281 279 256 261 242 253 234 221 213 206 207 210 216 223 223 219 222 221
112 179 113 115 35 90 54 92 328 74 27 311 336 321 338 22 338 41 59 49 23 52 27 4 21 113 52 356 8 4 1 351 8 9 38 45 40 38 35 36 35 33 29 27 25 20 20 11 5 3 2 354 344 10 42 30 5 340 2 326 332 320 317 326 327 317 301 318 339 314 333 325 317 309 308 298 267 232 229 269 294 284 272 257 245 236 229 220 222 224 226 233 242 233 229 229 228
106 136 86 103 38 73 2 82 336 71 49 358 327 357 359 33 36 57 50 73 37 356 250 27 310 50 356 15 6 1 348 343 7 31 38 49 46 41 37 37 34 31 31 27 24 21 18 18 15 11 12 359 341 336 338 79 169 260 258 261 291 288 298 283 295 317 328 333 339 304 298 299 308 315 294 276 275 315 299 310 313 305 289 260 263 249 242 224 226 231 235 242 241 241 242 236 228
130 83 69 83 20 84 336 65 273 63 28 358 327 331 74 55 35 57 39 67 88 39 55 21 34 68 55 53 24 357 352 349 353 49 46 48 47 45 35 34 33 31 31 27 25 21 13 16 16 17 16 9 2 350 337 337 324 284 299 271 248 254 248 241 251 235 228 262 284 294 273 265 287 295 289 295 263 242 247 241 279 299 301 297 281 270 257 254 227 224 229 235 236 247 252 247 234
63 78 58 50 61 53 314 94 91 61 306 353 341 15 70 66 42 72 61 54 63 51 66 40 62 43 47 38 22 15 1 14 29 39 37 32 31 31 31 30 26 32 23 30 23 20 16 15 12 13 13 15 10 5 10 352 331 332 312 274 247 245 359 321 267 226 214 229 239 265 257 257 263 263 266 276 282 264 239 244 249 268 299 305 287 270 261 254 239 228 228 231 241 239 241 244 238
52 57 116 64 142 59 223 130 116 65 59 7 19 1 60 53 345 27 20 35 60 61 62 77 73 68 55 36 26 25 19 35 34 37 33 36 31 32 31 22 24 22 18 17 25 19 19 13 19 11 11 14 15 16 13 6 3 349 343 334 337 343 274 277 302 291 234 219 214 214 224 235 238 240 246 248 249 257 266 250 236 239 244 274 291 287 279 260 255 264 242 223 227 228 242 247 258
68 105 71 112 162 51 59 317 7 49 51 61 56 40 60 31 357 340 74 35 34 45 40 38 46 43 39 33 25 28 32 35 38 40 38 35 33 36 33 24 24 21 26 17 25 23 21 17 18 18 12 8 16 22 19 14 10 8 4 359 353 347 326 297 276 255 252 245 230 215 207 216 226 227 230 226 230 238 245 256 251 237 239 238 251 262 287 297 285 271 269 261 218 218 228 237 239
22 98 77 54 151 95 46 23 360 42 118 70 64 50 57 24 31 320 80 65 39 40 17 18 32 26 24 22 23 30 38 41 41 43 43 40 37 35 32 29 24 21 18 16 22 23 22 23 18 16 14 12 23 21 21 18 15 13 16 10 7 357 341 338 322 319 305 277 247 235 232 230 227 234 233 232 231 235 239 248 250 256 253 251 255 254 255 267 265 255 257 265 290 273 205 216 224
347 59 62 69 331 64 354 18 56 91 118 86 82 72 65 38 39 28 81 58 36 33 28 34 34 28 28 26 26 32 39 43 40 41 40 41 43 44 39 36 27 18 10 6 22 22 22 21 16 18 15 20 25 24 23 21 16 20 18 14 12 9 3 357 350 340 333 328 319 307 271 225 224 238 235 239 240 239 239 240 246 244 241 256 247 236 239 240 258 270 263 270 263 256 257 257 239
94 75 30 3 310 64 352 39 76 92 80 87 60 55 84 111 42 33 56 73 49 25 23 31 43 40 36 34 31 38 41 43 40 43 39 36 34 36 35 35 33 29 14 25 18 21 21 19 21 15 19 23 23 24 25 24 25 25 19 12 9 13 13 9 5 2 354 347 336 320 318 306 286 246 226 229 237 231 237 238 242 238 245 246 238 243 233 239 258 260 266 257 251 264 253 237 225
83 28 39 38 42 95 334 43 20 102 71 62 69 66 83 75 68 36 58 57 54 36 30 43 46 46 49 52 48 47 43 43 42 41 38 40 34 32 34 31 28 26 23 26 12 22 21 21 19 17 23 21 24 23 25 29 33 32 26 19 16 14 16 15 14 13 13 14 10 4 344 321 313 310 297 273 246 227 237 237 240 238 245 244 242 239 247 246 244 247 256 259 259 257 257 245 235
81 80 51 38 58 65 30 75 91 76 82 75 91 86 55 80 68 20 60 48 49 42 30 33 49 55 53 54 44 47 46 43 44 42 40 42 40 37 32 35 31 28 31 26 25 15 22 23 19 19 20 20 20 19 27 29 28 30 36 28 26 21 23 22 13 6 12 19 14 12 13 9 349 335 325 316 307 284 241 233 242 251 241 246 245 240 248 254 254 252 246 248 250 247 248 245 240
71 69 44 54 58 46 44 71 56 80 82 113 74 66 62 67 91 58 50 43 33 31 38 38 46 62 52 53 47 46 48 45 44 40 40 37 38 38 39 38 33 29 31 26 20 24 23 22 21 23 21 20 20 18 30 28 26 27 29 30 31 29 32 27 14 13 17 16 19 18 16 13 13 9 359 342 327 307 302 288 264 249 241 246 240 249 240 244 244 242 240 244 244 247 243 246 237
24 89 88 74 65 54 30 60 42 47 83 79 59 51 39 142 87 50 34 30 23 24 37 41 45 54 48 50 47 45 46 46 43 40 37 33 31 33 33 31 28 32 25 24 22 25 23 22 27 25 22 20 17 24 29 29 26 27 27 26 26 29 31 24 25 28 23 19 18 16 16 14 13 6 2 1 358 339 309 302 291 270 261 253 235 242 234 232 240 238 239 241 242 244 245 241 236
145 86 78 80 74 61 15 71 64 62 70 64 80 53 27 12 76 59 17 20 12 33 34 32 51 55 51 50 46 42 44 42 41 38 41 35 32 35 31 32 33 31 25 25 23 23 21 27 30 26 25 21 21 28 26 30 29 30 28 26 24 25 24 22 24 26 29 27 23 19 19 17 11 8 7 3 2 359 347 324 300 299 292 273 256 249 236 230 232 231 231 231 231 236 239 238 231
64 176 76 53 55 47 23 14 358 321 45 72 73 72 45 7 52 41 344 355 9 29 41 44 51 55 50 47 50 46 48 41 40 38 42 36 33 28 31 28 25 30 29 26 25 17 25 27 29 29 26 23 26 28 27 28 28 28 28 28 25 22 22 23 23 27 26 24 23 25 24 19 13 11 8 5 6 359 351 353 348 330 305 297 286 268 257 242 231 230 232 232 232 230 237 239 234
61 87 78 11 51 41 12 3 320 2 341 324 218 44 25 15 37 1 7 19 9 16 47 45 52 53 52 51 51 47 44 42 39 40 39 41 39 34 41 31 28 33 31 29 24 27 28 24 28 27 25 27 28 28 27 28 27 25 26 27 24 22 23 23 22 20 20 21 22 22 24 21 18 13 9 6 5 2 353 353 356 356 350 338 313 288 280 275 268 251 242 231 233 235 239 239 227
45 31 82 29 20 33 359 346 347 28 346 333 103 49 355 355 9 7 7 13 357 20 47 43 48 49 48 48 48 48 45 43 42 44 39 40 39 35 39 29 30 32 29 26 26 32 27 27 28 27 27 28 29 29 27 27 25 24 23 23 26 23 23 23 22 18 16 16 17 19 18 20 18 13 11 8 6 4 359 358 357 355 350 342 340 327 297 277 269 266 258 245 234 226 230 233 228
77 264 55 42 23 17 345 14 338 67 333 14 101 96 326 360 359 0 1 7 4 38 52 43 46 44 45 47 47 48 44 40 43 37 39 37 36 38 39 34 33 33 34 31 32 28 31 32 28 31 25 28 27 28 27 25 23 25 21 21 22 23 22 22 21 17 14 13 12 13 13 13 13 14 13 8 6 7 2 355 357 353 347 346 343 342 334 306 281 273 267 261 253 240 233 235 227
25 40 0 339 72 322 308 11 20 64 327 356 77 78 62 25 350 350 358 2 9 25 58 47 45 49 49 48 52 52 48 42 43 43 37 36 34 33 34 31 28 33 35 32 32 29 32 30 29 32 27 28 28 26 27 26 24 25 23 21 20 21 21 21 20 19 14 12 13 11 9 9 8 7 7 7 4 5 4 357 353 351 352 349 348 344 344 344 323 292 276 264 263 254 241 241 227
9 75 99 359 19 345 353 9 1 10 202 12 104 136 129 21 347 349 349 14 350 20 55 44 41 45 48 48 54 55 50 40 39 34 25 23 23 28 26 31 28 30 31 30 30 29 32 27 26 29 25 23 24 24 24 25 24 24 23 22 20 20 22 18 15 15 15 14 11 12 9 8 5 3 3 2 2 358 357 355 350 349 351 352 348 346 346 343 346 337 316 290 269 264 257 247 242
22 22 79 339 51 321 48 309 16 360 87 65 41 100 119 156 295 327 337 356 339 48 70 56 53 53 43 54 57 53 57 48 40 19 5 6 3 10 16 26 27 28 34 35 32 33 29 25 26 28 27 24 24 22 20 21 22 23 26 25 22 23 23 21 15 14 14 12 9 9 6 7 5 1 0 358 356 356 353 350 345 347 352 354 350 346 345 344 344 343 334 327 301 274 267 260 252
83 11 73 50 57 54 68 50 335 25 43 86 81 89 121 138 184 359 319 344 356 67 84 91 78 58 48 55 54 53 51 47 26 350 344 350 355 356 2 7 17 25 28 31 34 32 30 27 26 25 25 22 21 18 19 19 21 31 40 29 26 25 24 23 15 17 17 10 8 3 5 5 2 0 359 357 353 352 351 351 350 350 350 350 348 343 343 346 345 343 342 335 331 309 276 269 266
113 120 97 99 77 16 56 309 288 50 47 59 41 110 120 57 15 344 336 342 54 2 14 36 32 31 39 39 39 44 36 37 346 327 327 336 348 349 352 355 4 15 20 25 30 30 30 28 26 26 24 18 16 19 14 18 21 17 11 9 18 19 19 17 17 17 10 10 6 2 2 2 1 357 357 355 353 351 349 347 346 346 346 340 338 341 343 348 349 348 347 341 335 334 321 287 276
129 90 75 56 77 24 321 316 300 49 65 38 80 80 101 56 301 296 306 347 5 358 34 30 23 40 34 31 30 19 29 17 307 312 318 328 338 346 342 347 354 3 15 19 26 28 27 23 20 24 15 15 18 15 16 12 9 6 14 17 10 2 5 4 11 10 12 7 2 3 1 1 357 355 356 353 351 348 348 344 341 341 342 340 338 340 341 342 347 348 339 340 341 338 331 328 301
100 92 81 42 49 55 251 282 331 345 117 259 52 77 112 177 326 304 330 38 269 268 29 53 49 55 32 51 33 4 320 310 344 347 338 341 343 347 346 347 355 13 9 13 22 21 21 19 24 15 14 17 19 21 16 18 19 17 3 1 360 358 360 2 359 3 3 0 2 4 1 358 355 354 351 350 349 347 344 344 342 340 341 339 336 334 337 340 342 348 347 339 348 338 326 328 329
55 98 122 69 3 251 284 267 342 356 83 250 101 163 202 195 214 254 197 247 247 247 243 247 199 10 33 27 25 6 360 337 329 326 327 334 337 341 348 348 350 5 1 13 8 15 21 21 17 11 8 12 12 12 17 15 9 9 8 356 1 356 2 357 352 345 350 355 1 3 360 357 354 351 349 348 346 344 343 340 339 338 338 337 334 335 337 340 343 345 347 343 332 334 320 323 328
65 64 61 132 256 61 5 331 6 345 100 183 173 183 230 271 270 233 233 209 239 252 259 256 234 227 284 277 250 305 322 321 330 316 320 327 332 331 345 348 343 347 360 3 6 11 16 17 15 10 6 5 2 4 7 3 5 356 354 345 348 3 343 326 319 324 352 358 2 359 356 356 351 346 346 345 341 339 339 336 334 335 335 336 333 330 333 334 338 339 341 339 335 328 333 323 329
336 83 120 161 332 293 160 291 326 305 19 95 79 340 305 217 192 221 245 259 246 290 334 330 297 246 239 246 243 214 251 276 299 317 327 334 341 336 325 324 339 349 346 357 356 2 5 3 2 5 0 359 356 352 352 339 351 353 346 338 309 314 322 338 356 358 4 358 350 357 353 350 346 343 341 340 338 334 332 330 329 329 329 330 329 327 326 327 329 328 330 330 337 328 320 319 317
333 278 147 217 205 245 296 332 10 32 336 350 138 11 288 222 209 208 217 267 239 235 170 266 282 302 346 3 305 314 309 248 241 277 290 301 316 332 344 340 340 332 339 337 336 339 355 345 348 354 353 350 350 344 343 344 353 358 355 359 1 0 359 2 2 354 349 352 349 341 341 347 342 338 338 334 332 330 327 325 322 321 323 324 323 320 315 318 323 327 329 327 324 323 311 314 314
53 257 114 324 259 200 241 297 115 300 150 283 26 160 266 284 232 213 212 208 236 284 264 261 288 288 301 278 289 292 290 314 319 306 311 333 327 338 333 334 323 322 322 329 332 340 339 339 341 348 350 347 346 343 342 347 354 2 3 4 359 356 350 347 346 341 339 337 338 338 337 340 342 337 333 333 329 325 323 321 321 320 318 317 317 314 312 314 316 319 321 322 320 317 316 310 314
20 192 36 359 71 201 228 170 197 222 297 252 54 112 204 304 265 208 191 184 226 258 255 268 264 275 273 266 266 271 282 273 263 284 293 288 287 299 302 307 311 307 304 320 334 339 338 327 334 342 341 346 342 337 340 348 356 356 356 360 356 353 350 338 338 336 333 330 335 336 335 335 337 337 330 328 326 324 322 319 320 320 319 316 317 313 312 313 310 306 309 312 309 310 309 303 305
234 190 253 284 239 236 143 110 102 316 338 278 61 98 284 253 263 37 126 193 236 237 230 228 245 256 262 265 265 266 262 261 260 275 285 294 306 311 305 313 311 312 322 326 318 317 314 326 330 335 336 335 326 335 352 350 358 356 354 352 349 344 336 332 325 323 325 327 329 332 332 331 332 333 330 326 324 322 319 317 316 316 315 315 315 312 312 309 307 308 308 307 310 307 305 298 297
279 152 100 94 79 66 85 97 84 324 73 269 204 179 194 271 268 172 333 249 230 219 213 216 220 229 246 271 278 275 281 281 273 249 266 299 307 306 299 292 300 307 304 302 316 329 328 317 316 329 346 353 341 353 360 1 1 356 349 343 337 329 329 323 322 322 324 329 327 328 331 331 331 330 328 325 321 319 313 311 310 308 308 309 311 308 306 309 307 306 303 299 297 297 297 296 296
26 91 83 26 44 37 25 66 73 49 307 252 190 9 144 297 228 197 167 219 189 186 220 245 257 263 264 249 253 272 279 286 293 312 309 299 293 288 300 306 294 304 306 301 305 297 289 328 350 2 358 356 351 349 353 349 348 342 335 329 325 322 320 319 321 322 323 325 325 324 328 327 327 325 326 322 317 313 309 307 305 304 303 303 303 306 306 305 307 303 302 298 296 292 296 295 293
84 71 115 64 354 3 30 340 31 167 272 258 257 347 194 201 292 258 225 277 192 168 168 178 190 227 257 282 299 283 273 280 293 299 303 323 328 321 329 319 310 292 304 333 341 347 353 352 357 353 336 335 324 316 316 315 324 322 320 318 317 316 318 321 322 321 325 324 323 321 321 319 319 317 317 312 312 310 306 302 302 299 299 298 299 299 300 301 299 300 299 300 297 294 295 295 286
47 65 39 72 276 27 284 12 277 204 213 267 321 331 346 237 239 223 208 223 205 184 154 162 167 191 270 288 274 286 288 294 288 279 283 296 279 279 292 306 325 342 341 333 330 325 313 307 308 306 301 303 301 296 293 303 323 330 327 322 320 320 319 317 318 319 319 318 318 317 319 319 317 317 314 310 305 303 304 302 302 298 297 296 295 296 295 295 295 295 297 298 297 298 297 292 292
2 45 64 71 14 30 257 274 227 295 285 275 270 295 249 267 289 245 190 206 194 178 157 155 163 184 235 248 287 305 301 286 282 273 272 267 268 271 290 309 309 308 310 305 300 295 286 282 286 294 290 296 295 297 300 323 332 333 329 322 317 316 314 315 316 315 315 312 312 310 312 313 315 311 310 306 301 302 297 293 293 292 291 291 293 294 295 292 293 292 294 295 297 296 295 293 289
322 238 339 181 137 168 275 227 264 233 250 284 285 13 240 33 255 328 316 308 243 195 166 162 166 185 214 266 281 283 287 291 271 277 266 264 272 274 283 288 286 283 281 290 285 274 272 281 284 288 292 298 304 303 318 328 329 326 319 312 311 312 312 313 314 311 310 310 308 305 306 308 306 304 300 301 301 296 293 294 294 294 294 291 290 292 293 291 289 288 287 288 289 293 293 293 291
278 163 90 55 290 126 224 207 187 306 347 330 260 208 212 225 305 320 336 43 72 127 146 110 227 281 348 334 320 300 295 295 294 281 274 269 260 272 282 277 275 271 274 275 271 269 278 275 273 273 276 287 293 302 308 309 314 311 310 311 310 310 309 310 307 306 302 300 301 304 305 304 300 299 297 296 295 295 296 294 291 287 288 289 288 290 289 288 288 287 288 287 289 291 290 289 292
261 66 32 222 218 97 79 68 79 72 51 255 184 306 295 301 299 108 21 114 144 133 169 184 272 290 341 293 279 281 283 286 283 274 266 273 289 285 266 267 269 271 272 267 270 275 272 273 272 273 275 281 284 288 292 302 306 311 309 307 307 309 309 308 307 303 301 299 298 300 300 298 297 295 295 296 296 295 293 291 291 291 289 289 290 289 286 285 285 285 286 287 288 289 285 289 291
55 43 236 147 117 115 122 276 338 59 150 267 42 251 303 28 289 29 21 198 228 230 227 232 277 309 299 268 262 264 275 278 279 276 269 266 269 272 276 268 259 259 261 270 273 277 272 263 261 264 273 283 285 287 296 305 307 306 305 306 307 306 306 304 303 302 301 301 300 298 295 295 294 295 297 297 297 294 292 292 290 289 288 289 289 288 285 284 284 284 283 282 285 287 286 287 288
117 183 169 76 301 325 327 89 332 323 286 282 298 287 254 209 254 145 233 212 220 224 232 250 267 276 262 267 265 265 275 293 290 279 275 271 261 258 258 264 272 271 269 267 269 269 270 265 259 257 271 276 280 286 290 292 293 298 301 305 304 302 299 298 298 298 301 302 301 300 297 293 295 298 296 297 298 295 293 291 288 286 288 288 286 287 287 283 283 283 284 283 283 283 282 286 286
21 41 46 355 104 170 96 201 186 119 273 28 285 13 270 198 230 196 215 213 215 210 224 227 234 241 254 260 273 282 284 278 276 273 266 261 263 266 270 275 279 279 278 273 268 268 265 265 269 272 271 274 282 285 282 287 289 294 298 298 296 294 294 296 298 300 301 300 298 298 298 297 297 298 297 296 294 293 292 292 290 288 288 288 287 286 285 284 282 277 280 282 283 282 281 282 285
329 25 335 357 49 210 107 17 142 200 202 198 267 314 273 263 215 190 221 216 211 198 205 218 237 256 270 272 269 271 274 280 279 271 270 266 266 271 273 270 266 268 266 265 261 259 262 272 274 270 270 275 275 272 278 282 292 294 295 294 294 295 294 295 296 296 297 297 297 296 294 295 299 297 298 295 292 291 292 292 292 291 290 288 289 286 286 283 282 282 280 284 284 279 279 278 280
192 176 218 178 91 317 286 273 43 57 122 242 148 263 255 273 126 252 262 255 212 196 188 246 270 279 274 270 268 269 283 281 275 275 267 267 267 268 272 272 270 269 267 264 262 263 266 265 263 269 268 262 266 273 274 281 285 287 289 290 291 291 291 293 293 295 294 294 295 294 294 296 296 296 297 293 291 292 292 293 293 293 293 293 289 288 286 286 285 286 284 283 280 279 279 279 280